This is the latest recevied weather packets stored in our database for station/object K4LEN. If no packets are shown the sender has not sent any weather packets the latest 10 day(s).
| Time | Temp. | Humidity | Pressure | Rain* | Wind** | Luminosity | Snow |
|---|---|---|---|---|---|---|---|
| 1788144052 | 73° F | 98% | 766.8 mmHg | 0 in | - | 8 W/m² | - |
| 1788143450 | 73° F | 98% | 766.9 mmHg | 0 in | - | 6 W/m² | - |
| 1788142846 | 73° F | 97% | 766.8 mmHg | 0 in | - | 7 W/m² | - |
| 1788142241 | 74° F | 97% | 766.9 mmHg | 0 in | - | 8 W/m² | - |
| 1788141637 | 74° F | 96% | 766.9 mmHg | 0 in | - | 10 W/m² | - |
| 1788141033 | 74° F | 96% | 766.7 mmHg | 0 in | - | 6 W/m² | - |
| 1788140429 | 75° F | 95% | 766.6 mmHg | 0 in | - | 6 W/m² | - |
| 1788139825 | 76° F | 94% | 766.6 mmHg | 0 in | - | 7 W/m² | - |
| 1788139220 | 76° F | 93% | 766.6 mmHg | 0 in | - | 9 W/m² | - |
| 1788138616 | 77° F | 92% | 766.3 mmHg | 0 in | - | 9 W/m² | - |
| 1788138013 | 77° F | 91% | 766.3 mmHg | 0 in | - | 10 W/m² | - |
| 1788137413 | 78° F | 90% | 766.3 mmHg | 0 in | - | 7 W/m² | - |
| 1788136810 | 79° F | 88% | 766.3 mmHg | 0 in | - | 7 W/m² | - |
| 1788136207 | 81° F | 84% | 766 mmHg | 0 in | - | 7 W/m² | - |
| 1788135607 | 82° F | 81% | 766.1 mmHg | 0 in | - | 1 W/m² | - |
| 1788135005 | 84° F | 79% | 766.2 mmHg | 0 in | - | 6 W/m² | - |
| 1788134406 | 85° F | 74% | 766.3 mmHg | 0 in | - | 11 W/m² | - |
| 1788133801 | 85° F | 73% | 766.2 mmHg | 0 in | - | 21 W/m² | - |
| 1788133197 | 86° F | 69% | 766.3 mmHg | 0 in | - | 31 W/m² | - |
| 1788132594 | 87° F | 67% | 766.3 mmHg | 0 in | - | 45 W/m² | - |
| 1788131992 | 87° F | 66% | 766.2 mmHg | 0 in | - | 70 W/m² | - |
| 1788131392 | 88° F | 66% | 766.2 mmHg | 0 in | - | 101 W/m² | - |
| 1788130792 | 88° F | 66% | 766.3 mmHg | 0 in | - | 116 W/m² | - |
| 1788130188 | 89° F | 63% | 766.1 mmHg | 0 in | - | 165 W/m² | - |
| 1788129583 | 89° F | 63% | 766.3 mmHg | 0 in | - | 182 W/m² | - |
* Rain latest hour (hover to see other rain measurements)
** Current wind speed in m/s (hover to see current wind gust speed)